Other Public Products
Issued by NWS Grand Forks, ND

Home | Current Version | Previous Version | Graphics & Text | Print | Product List | Glossary On
Versions: 1 2 3 4 5 6 7 8 9 10 11 12 13 14 15 16 17 18 19 20 21 22 23 24 25 26 27 28 29 30 31 32 33 34 35 36 37 38 39 40 41 42 43 44 45 46 47 48 49 50
204
FPUS83 KFGF 231210
OPUFGF
PRAIRIE TO PINES WEATHER ROUNDUP
NATIONAL WEATHER SERVICE EASTERN NORTH DAKOTA/GRAND FORKS ND
700 AM CDT MON OCT 23 2017

 **SATELLITE DATA USED TO AUGMENT SKY COVER AT AUTOMATED STATIONS**
 *****  WEATHER ACROSS EASTERN NORTH DAKOTA  *****

CITY           SKY/WX    TMP DP  RH WIND       PRES   REMARKS
GRAND FORKS    CLOUDY    48  41  76 NW18G29   29.70R
6HR MIN TEMP:  47; 6HR MAX TEMP:  60; 6HR PCP:  0.04;

GRAND FORKS AF CLOUDY    47  39  75 NW15G30   29.72R
GRAND CITY NWS NOT AVBL
BUXTON         NOT AVBL
DEVILS LAKE    LGT RAIN  42  40  92 NW24G30   29.83R
6HR MIN TEMP:  42; 6HR MAX TEMP:  55; 6HR PCP:  0.01;

FARGO          FAIR      48  38  68 W25G32    29.75R
6HR MIN TEMP:  48; 6HR MAX TEMP:  54; 6HR PCP:  0.01;

WAHPETON ARPT  NOT AVBL
$$

 *****  WEATHER ACROSS CENTRAL AND WESTERN NORTH DAKOTA  *****

CITY           SKY/WX    TMP DP  RH WIND       PRES   REMARKS
JAMESTOWN      MOCLDY    45  35  68 NW30G45   29.82R
6HR MIN TEMP:  45; 6HR MAX TEMP:  56;

BISMARCK       MOCLDY    49  36  61 NW20G35   29.95R
6HR MIN TEMP:  47; 6HR MAX TEMP:  55; 6HR PCP:  0.01;

MINOT          MOCLDY    42  36  79 W21G30    29.94R
6HR MIN TEMP:  42; 6HR MAX TEMP:  51;

MINOT AFB      CLOUDY    41  36  82 NW17      29.92R
6HR MIN TEMP:  40; 6HR MAX TEMP:  49;

GARRISON         N/A     42  37  82 NW20G39   29.97R
6HR MIN TEMP:  42; 6HR MAX TEMP:  50;

WILLISTON      CLEAR     43  34  70 NW10      30.05R
DICKINSON      FAIR      43  33  68 W24G32    30.02R
6HR MIN TEMP:  43; 6HR MAX TEMP:  49;

HETTINGER      FAIR      43  31  62 W23G30    30.08R
6HR MIN TEMP:  42; 6HR MAX TEMP:  46;

$$

 *****  OTHER OBSERVATIONS NORTHEAST NORTH DAKOTA  *****

CITY           SKY/WX    TMP DP  RH WIND       PRES   REMARKS
WALHALLA       LGT RAIN N/A N/A N/A NW23G32   29.76R
LANGDON        NOT AVBL
CAVALIER       CLOUDY    46  41  81 NW29G37   29.73R
GRAFTON        NOT AVBL
CANDO          PTSUNNY   41  41 100 NW16      29.87R
FORT TOTTEN      N/A     42  40  94 NW13      29.95S
ROLLA          CLOUDY    39  39 100 NW22G29   29.86R
RUGBY          NOT AVBL
 ***** THE ABOVE OBSERVATIONS ARE NON NWS ARE NOT QUALITY
        CONTROLLED AND MAY MIS-REPORT RAIN FOR SNOW...
$$

 *****  OTHER OBSERVATIONS SOUTHEAST NORTH DAKOTA *****

CITY           SKY/WX    TMP DP  RH WIND       PRES   REMARKS
COOPERSTOWN    CLOUDY    45  37  76 NW24G32   29.79R
VALLEY CITY    NOT AVBL
OAKES          NOT AVBL
GWINNER        SUNNY     50  36  57 NW25G39   29.82R
SHEYENNE NWR     N/A     50  35  55 NW14      29.95
BUFFALO        NOT AVBL
WYNDMERE       NOT AVBL
 ***** THE ABOVE OBSERVATIONS ARE NON NWS ARE NOT QUALITY
       CONTROLLED AND MAY MIS-REPORT RAIN FOR SNOW...
$$

  *****  WEATHER ACROSS NORTHERN MINNESOTA  *****

CITY           SKY/WX    TMP DP  RH WIND       PRES   REMARKS
FLAG ISLAND    FAIR      48  37  66 CALM      29.57R
WARROAD        FAIR      48  45  87 W6        29.59R
ROSEAU         FAIR      45  39  81 W9        29.60R
HALLOCK        CLOUDY    46  39  76 NW17G26   29.68R
THF RVR FALLS  FAIR      45  38  76 W16       29.67R
6HR MIN TEMP:  45; 6HR MAX TEMP:  55; 6HR PCP:  0.05;

HALSTAD        NOT AVBL
FOSSTON        FAIR      45  39  81 W12       29.68R
BAUDETTE       LGT RAIN  48  48 100 SW6       29.59R
6HR MIN TEMP:  48; 6HR MAX TEMP:  54; 6HR PCP:  0.08;

WASKISH        FAIR      50  46  87 SW8       29.62R
CROOKSTON      CLOUDY    46  41  81 NW17      29.70R
$$
  *****  WEATHER ACROSS CENTRAL AND WEST MINNESOTA  *****

CITY           SKY/WX    TMP DP  RH WIND       PRES   REMARKS
BEMIDJI        FAIR      48  42  79 SW8       29.64S
6HR MIN TEMP:  46; 6HR MAX TEMP:  54;

PARK RAPIDS    FAIR      46  43  89 W9        29.68R
6HR MIN TEMP:  46; 6HR MAX TEMP:  54; 6HR PCP:  0.01;

WADENA         MOCLDY    50  41  71 W9        29.72R
DETROIT LAKES  FAIR      48  39  71 W14G21    29.73R
MOORHEAD       FAIR      48  36  61 W25G36    29.76R
FERGUS FALLS   CLOUDY    50  39  66 W13       29.78R
ELBOW LAKE     PTSUNNY   50  40  69 NW12      29.78R
6HR MIN TEMP:  49; 6HR MAX TEMP:  57;

MORRIS MN      FAIR      52  39  62 W13       29.79R
STAPLES        FAIR      48  39  71 W8        29.71R
WHEATON        FAIR      52  36  54 W14       29.82R
$$
  *****  WEATHER ELSEWHERE ACROSS MINNESOTA  *****

CITY           SKY/WX    TMP DP  RH WIND       PRES   REMARKS
DULUTH         CLOUDY    51  35  54 SW13      29.68F
6HR MIN TEMP:  51; 6HR MAX TEMP:  53; 6HR PCP: TRACE;

INTRNTL FALLS  LGT RAIN  48  43  82 S3        29.60S
6HR MIN TEMP:  47; 6HR MAX TEMP:  54; 6HR PCP:  0.04;

ELY            CLOUDY    52  32  46 S7G16     29.66R
CLOQUET        MOCLDY    52  32  46 S9        29.68F
BRAINERD       FAIR      49  38  65 SW9       29.70R
6HR MIN TEMP:  49; 6HR MAX TEMP:  55;

HIBBING        CLOUDY    47  36  65 S3        29.65F
6HR MIN TEMP:  46; 6HR MAX TEMP:  51; 6HR PCP: TRACE;

ALEXANDRIA     FAIR      51  41  68 W16       29.78R
6HR MIN TEMP:  51; 6HR MAX TEMP:  56; 6HR PCP: TRACE;

SAINT CLOUD    FAIR      46  39  76 SW7       29.74S
6HR MIN TEMP:  45; 6HR MAX TEMP:  53;

MINNEAPOLIS    MOCLDY    52  36  54 SW8       29.78R
6HR MIN TEMP:  47; 6HR MAX TEMP:  57;

$$

  *****  WEATHER ACROSS SOUTH DAKOTA  *****

CITY           SKY/WX    TMP DP  RH WIND       PRES   REMARKS
SIOUX FALLS    CLOUDY    56  40  55 NW22G33   29.92R
6HR MIN TEMP:  46; 6HR MAX TEMP:  57;

BROOKINGS      FAIR      51  38  60 NW17G24   29.89R
WATERTOWN      FAIR      48  39  71 W21       29.87R
6HR MIN TEMP:  48; 6HR MAX TEMP:  53; 6HR PCP: TRACE;

HURON          FAIR      50  37  61 NW24G31   29.94R
6HR MIN TEMP:  49; 6HR MAX TEMP:  56;

SISSETON         N/A     51  38  60 W26G33    29.81R
ABERDEEN       MOCLDY    48  38  68 W14G23    29.90R
6HR MIN TEMP:  47; 6HR MAX TEMP:  55;

MITCHELL       FAIR      54  38  54 NW24G30   29.97R
PIERRE         MOCLDY    49  38  65 NW18      30.05R
6HR MIN TEMP:  49; 6HR MAX TEMP:  55; 6HR PCP: TRACE;

MOBRIDGE       FAIR      50  39  66 NW18G29   29.96R
RAPID CITY     FAIR      49  21  33 NW28G41   30.17R
6HR MIN TEMP:  49; 6HR MAX TEMP:  55;

$$

  *****  SOME WEATHER IN NEARBY STATES *****

CITY           SKY/WX    TMP DP  RH WIND       PRES   REMARKS
GLASGOW MT     FAIR      35  28  75 NW9       30.16R
6HR MIN TEMP:  35; 6HR MAX TEMP:  45;

GREAT FALLS MT FAIR      39  24  55 SW13      30.32R
6HR MIN TEMP:  38; 6HR MAX TEMP:  45;

CHEYENNE WY    CLOUDY    37  31  78 N17G31    30.32R
6HR MIN TEMP:  37; 6HR MAX TEMP:  55;

SCOTTSBLUFF NE CLOUDY    47  24  40 NW23G33   30.31R
6HR MIN TEMP:  46; 6HR MAX TEMP:  62;

OMAHA NE       MOCLDY    50  35  56 NW5       29.90R
6HR MIN TEMP:  46; 6HR MAX TEMP:  51;

DES MOINES IA  FAIR      45  39  79 S7        29.84F
6HR MIN TEMP:  45; 6HR MAX TEMP:  47;

DAVENPORT IA   FAIR      42  42 100 CALM      29.93F
6HR MIN TEMP:  42; 6HR MAX TEMP:  49;

CHICAGO IL     RAIN      51  49  92 N12       29.87F
6HR MIN TEMP:  51; 6HR MAX TEMP:  52; 6HR PCP:  0.51;

EAU CLAIRE WI  FAIR      46  40  79 S3        29.79F
6HR MIN TEMP:  45; 6HR MAX TEMP:  48; 6HR PCP: TRACE;

LA CROSSE WI   FAIR      48  44  86 S7        29.85F
6HR MIN TEMP:  45; 6HR MAX TEMP:  49;

$$

  *****  SOME NATIONAL WEATHER *****

CITY           SKY/WX    TMP DP  RH WIND       PRES   REMARKS
LA GUARDIA NY  MOCLDY    64  61  90 E6        30.30S



USA.gov is the U.S. government's official web portal to all federal, state and local government web resources and services.